Вернуться в каталог

STARLINK-31185

АктивенСвязьVLEO
NORAD 58788·PAYLOAD·🇺🇸 United States

Запущен Jan 15, 2024 с Cape Canaveral Space Force Station

Loading…

Ближайшие Пролёты (ближайшие 24 часа)

TLE

СвежийSource: CelesTrak SupGP

Эпоха: Sep 15, 2026, 02:34 UTC

1 58788C 24012B   26258.10743056 -.00012402  00000+0 -44927-3 0  2581
2 58788  42.9995 175.8985 0001331 273.2518 335.3146 15.27579624    19

Отслеживайте STARLINK-31185 в реальном времени с AllMySat

Download on the App Store